Date String (YYYY-MM-DD hh:mm:ss) UTC,Instrument flags,Ambient pressure (hPa),Sample flow (lpm),Bypass flow (lpm),Sample temperature (°C),Ambient temperature (°C),ASC tube jacket temperature (°C),LED temperature (°C),Box temperature (°C),Sample RH (%),Span deviation,Mass concentration (μg/m³),Mass concentration (μg/m³),Mass concentration (μg/m³)
DateTimeUTC,F1_M11,P_M11,Q1_M11,Q2_M11,T1_M11,T2_M11,T3_M11,T4_M11,T5_M11,U1_M11,ZSPAN_M11,X0_M11,X2_M11,X1_M11
2022-02-26 17:00:00,,0831.4,5.01,0.00,22.7,22.1,00.0,31.6,24.6,07.2,0000.3,0018.73,0010.84,0009.80
2022-02-26 17:01:00,,0831.3,5.01,0.00,22.7,22.1,00.0,31.6,24.6,07.1,0000.2,0018.49,0010.89,0009.88
2022-02-26 17:02:00,,0831.4,5.01,0.00,22.8,22.2,00.0,31.6,24.6,07.1,-000.1,0018.72,0010.92,0009.95
2022-02-26 17:03:00,,0831.4,4.98,0.00,22.8,22.2,00.0,31.6,24.6,07.2,-000.1,0018.81,0010.98,0010.01
2022-02-26 17:04:00,,0831.4,5.00,0.00,22.8,22.2,00.0,31.6,24.7,07.0,-000.4,0019.19,0011.05,0010.09
2022-02-26 17:05:00,,0831.5,4.99,0.00,22.8,22.2,00.0,31.6,24.7,06.8,-000.1,0018.71,0011.14,0010.21
2022-02-26 17:06:00,,0831.5,5.00,0.00,22.8,22.2,00.0,31.7,24.7,06.9,0000.2,0018.85,0011.22,0010.31
2022-02-26 17:07:00,,0831.5,5.02,0.00,22.9,22.2,00.0,31.7,24.7,06.9,-000.0,0018.80,0011.24,0010.37
2022-02-26 17:08:00,,0831.6,5.00,0.00,22.9,22.2,00.0,31.7,24.8,06.9,0000.0,0018.83,0011.30,0010.42
2022-02-26 17:09:00,,0831.6,5.00,0.00,22.9,22.3,00.0,31.7,24.8,06.9,-000.1,0018.70,0011.38,0010.50
2022-02-26 17:10:00,,0831.6,4.98,0.00,22.9,22.3,00.0,31.7,24.8,07.1,0000.5,0018.87,0011.42,0010.54
2022-02-26 17:11:00,,0831.6,5.00,0.00,22.9,22.3,00.0,31.7,24.8,07.1,0000.7,0018.52,0011.50,0010.61
2022-02-26 17:12:00,,0831.6,4.99,0.00,22.9,22.3,00.0,31.8,24.8,07.1,0000.9,0018.63,0011.58,0010.70
2022-02-26 17:13:00,,0831.6,5.00,0.00,22.9,22.2,00.0,31.8,24.8,07.0,0001.0,0018.66,0011.68,0010.81
2022-02-26 17:14:00,,0831.6,5.00,0.00,22.9,22.3,00.0,31.8,24.8,07.1,0000.7,0018.04,0011.80,0010.93
2022-02-26 17:15:00,,0831.5,5.00,0.00,23.0,22.3,00.0,31.8,24.8,07.0,0000.4,0017.58,0011.96,0011.07
2022-02-26 17:16:00,,0831.6,5.01,0.00,22.9,22.2,00.0,31.8,24.8,07.0,0000.2,0017.74,0012.09,0011.21
2022-02-26 17:17:00,,0831.6,5.00,0.00,22.9,22.2,00.0,31.8,24.7,07.0,0000.0,0017.90,0012.24,0011.34
2022-02-26 17:18:00,,0831.6,4.98,0.00,22.9,22.2,00.0,31.8,24.7,06.9,0000.1,0018.09,0012.38,0011.50
2022-02-26 17:19:00,,0831.6,5.00,0.00,22.9,22.1,00.0,31.8,24.7,07.0,-000.1,0018.54,0012.59,0011.68
2022-02-26 17:20:00,,0831.6,5.01,0.00,22.9,22.1,00.0,31.8,24.7,07.3,0000.1,0018.89,0012.75,0011.85
2022-02-26 17:21:00,,0831.6,5.00,0.00,22.9,22.1,00.0,31.8,24.7,07.4,0000.2,0018.95,0012.86,0011.98
2022-02-26 17:22:00,,0831.6,5.00,0.00,22.9,22.1,00.0,31.8,24.7,07.3,0000.0,0018.73,0012.89,0012.02
2022-02-26 17:23:00,,0831.6,5.01,0.00,22.9,22.1,00.0,31.8,24.7,07.3,-000.3,0018.44,0012.87,0012.02
2022-02-26 17:24:00,,0831.7,5.00,0.00,22.9,22.1,00.0,31.8,24.7,07.4,0000.0,0018.32,0012.83,0011.97
2022-02-26 17:25:00,,0831.7,4.99,0.00,22.9,22.1,00.0,31.8,24.7,07.4,0000.6,0018.52,0012.83,0011.95
2022-02-26 17:26:00,,0831.6,4.99,0.00,22.9,22.0,00.0,31.8,24.6,07.5,0001.3,0018.52,0012.76,0011.92
2022-02-26 17:27:00,,0831.6,5.00,0.00,22.8,21.9,00.0,31.8,24.6,07.2,0001.3,0018.96,0012.69,0011.88
2022-02-26 17:28:00,,0831.6,5.00,0.00,22.8,21.9,00.0,31.8,24.6,07.2,0001.2,0018.93,0012.62,0011.82
2022-02-26 17:29:00,,0831.6,5.00,0.00,22.8,21.9,00.0,31.8,24.6,07.3,0001.3,0018.84,0012.56,0011.75
2022-02-26 17:30:00,,0831.6,5.00,0.00,22.8,21.8,00.0,31.8,24.5,07.4,0001.2,0018.48,0012.46,0011.69
2022-02-26 17:31:00,,0831.6,5.01,0.00,22.8,21.8,00.0,31.8,24.5,07.4,0001.0,0018.24,0012.38,0011.62
2022-02-26 17:32:00,,0831.6,5.01,0.00,22.8,21.9,00.0,31.8,24.5,07.3,0001.1,0018.08,0012.34,0011.57
2022-02-26 17:33:00,,0831.6,5.00,0.00,22.8,21.9,00.0,31.8,24.5,07.4,0001.0,0017.64,0012.30,0011.55
2022-02-26 17:34:00,,0831.7,5.01,0.00,22.7,21.9,00.0,31.8,24.5,07.3,0001.2,0017.59,0012.28,0011.54
2022-02-26 17:35:00,,0831.7,4.99,0.00,22.7,21.9,00.0,31.7,24.5,07.3,0000.9,0017.52,0012.28,0011.53
2022-02-26 17:36:00,,0831.7,5.00,0.00,22.7,21.9,00.0,31.7,24.5,07.3,0000.7,0017.20,0012.21,0011.49
2022-02-26 17:37:00,,0831.6,5.00,0.00,22.7,21.9,00.0,31.7,24.5,07.3,0000.6,0017.12,0012.18,0011.45
2022-02-26 17:38:00,,0831.6,5.00,0.00,22.8,21.9,00.0,31.7,24.5,07.4,0000.9,0016.76,0012.18,0011.42
2022-02-26 17:39:00,,0831.6,5.00,0.00,22.8,21.9,00.0,31.7,24.6,07.2,0001.0,0016.54,0012.13,0011.36
2022-02-26 17:40:00,,0831.6,5.01,0.00,22.7,21.9,00.0,31.7,24.5,07.4,0001.0,0016.55,0012.05,0011.30
2022-02-26 17:41:00,,0831.6,5.00,0.00,22.7,21.9,00.0,31.7,24.5,07.3,0000.9,0016.73,0012.01,0011.26
2022-02-26 17:42:00,,0831.6,5.00,0.00,22.7,21.9,00.0,31.7,24.5,07.4,0000.8,0016.62,0011.93,0011.21
2022-02-26 17:43:00,,0831.6,4.99,0.00,22.7,21.9,00.0,31.7,24.5,07.5,0000.4,0016.21,0011.81,0011.14
2022-02-26 17:44:00,,0831.6,5.00,0.00,22.7,22.0,00.0,31.7,24.5,07.4,-000.1,0016.21,0011.76,0011.06
2022-02-26 17:45:00,,0831.6,5.00,0.00,22.7,22.0,00.0,31.7,24.5,07.2,-000.4,0016.25,0011.71,0010.98
2022-02-26 17:46:00,,0831.6,5.00,0.00,22.8,22.0,00.0,31.7,24.5,07.1,-000.7,0016.13,0011.60,0010.89
2022-02-26 17:47:00,,0831.6,5.00,0.00,22.8,22.1,00.0,31.7,24.6,07.1,-001.2,0016.36,0011.49,0010.79
2022-02-26 17:48:00,,0831.6,5.00,0.00,22.8,22.1,00.0,31.7,24.6,07.2,-001.5,0016.77,0011.35,0010.67
2022-02-26 17:49:00,,0831.6,5.01,0.00,22.8,22.1,00.0,31.7,24.6,07.2,-001.9,0017.22,0011.23,0010.57
2022-02-26 17:50:00,,0831.7,5.00,0.00,22.8,22.1,00.0,31.7,24.7,07.3,-001.7,0017.30,0011.19,0010.48
2022-02-26 17:51:00,,0831.6,5.01,0.00,22.8,22.1,00.0,31.7,24.7,07.4,-001.7,0017.18,0011.09,0010.38
2022-02-26 17:52:00,,0831.6,5.00,0.00,22.9,22.1,00.0,31.8,24.7,07.6,-001.7,0016.80,0010.98,0010.26
2022-02-26 17:53:00,,0831.6,5.00,0.00,22.8,22.1,00.0,31.8,24.7,07.4,-001.5,0016.63,0010.88,0010.16
2022-02-26 17:54:00,,0831.6,5.00,0.00,22.9,22.2,00.0,31.8,24.7,07.3,-001.2,0016.49,0010.80,0010.10
2022-02-26 17:55:00,,0831.6,5.01,0.00,22.9,22.2,00.0,31.8,24.7,07.4,-000.9,0016.70,0010.72,0010.06
2022-02-26 17:56:00,,0831.6,5.00,0.00,22.9,22.2,00.0,31.8,24.8,07.4,-000.7,0016.62,0010.65,0010.04
2022-02-26 17:57:00,,0831.6,4.99,0.00,22.9,22.1,00.0,31.8,24.7,07.3,-000.5,0016.63,0010.65,0010.05
2022-02-26 17:58:00,,0831.6,5.00,0.00,22.9,22.1,00.0,31.8,24.7,07.3,-000.1,0016.46,0010.68,0010.07
2022-02-26 17:59:00,,0831.6,5.00,0.00,22.9,22.2,00.0,31.8,24.8,07.5,0000.2,0016.05,0010.69,0010.07
